Retour au catalogue

FENGYUN 1C DEB

ActifSSO
NORAD 31430·DEBRIS·🇨🇳 China

Lancé May 10, 1999 depuis Taiyuan Satellite Launch Center

Loading…

Prochains Passages (prochaines 24 heures)

TLE

FraisSource: Space-Track

Époque: Sep 14, 2026, 10:55 UTC

1 31430U 99025BTS 26257.45550976  .00001394  00000-0  59260-3 0  9991
2 31430  98.7214 324.5766 0025336 319.0228  53.3615 14.26704943   486

Suivez FENGYUN 1C DEB en temps réel avec AllMySat

Download on the App Store